Flag for Norway Weather past 2 weeks in Stavern, Norway

Now
46 °F

Scattered showers. Broken clouds.


Feels Like: 41 °F
Forecast: 46 / 53 °F
Wind: 12 mph from South

Location: Torp

Current Time: May 29, 2015 at 11:31:13 PM

Latest Report: May 29, 2015 at 10:50 PM


Visibility: N/A

Pressure: 29.62 "Hg

Humidity: 82%

Dew point: 41 °F

Location of StavernLocation

Historic Weather in Stavern — Graph

°F

Stavern temperature yesterday

Maximum temperature yesterday: 52 °F (at 3:20 PM)
Minimum temperature yesterday: 43 °F (at 3:20 AM)
Average temperature yesterday: 48 °F

Past Weeks' High & Low Weather Summary

 TemperatureHumidityPressure
High63 °F (May 23, 1:50 PM)100% (May 16, 3:50 PM)30.04 "Hg (May 16, 3:50 PM)
Low36 °F (May 18, 3:20 AM)29% (May 23, 5:50 PM)29.39 "Hg (May 19, 8:20 AM)
Average49 °F71%29.78 "Hg
* Reported May 14 9:20 PM — May 29 9:50 PM, Stavern, Weather by CustomWeather, © 2015

Note: Actual official high and low records may vary slightly from our data, if they occured in-between our weather recording intervals... More about our weather records

Advertising

Stavern weather history for previous 24 hours

 ConditionsComfort  
Time TempWeatherWind HumidityBarometerVisibility
9:50 PM
Fri, May 29
48 °FScattered clouds.13 mph82%29.62 "HgN/A
9:20 PM48 °FScattered clouds.13 mph82%29.62 "HgN/A
8:50 PM48 °FScattered clouds.16 mph76%29.62 "HgN/A
8:20 PM50 °FPassing clouds.15 mph71%29.62 "HgN/A
7:50 PM50 °FPassing clouds.17 mph71%29.62 "HgN/A
7:20 PM52 °FPassing clouds.18 mph67%29.59 "HgN/A
6:50 PM52 °FPassing clouds.18 mph67%29.59 "HgN/A
6:20 PM52 °FPassing clouds.17 mph67%29.59 "HgN/A
5:50 PM52 °FScattered clouds.20 mph62%29.59 "HgN/A
5:20 PM52 °FScattered clouds.20 mph62%29.59 "HgN/A
4:50 PM52 °FScattered clouds.21 mph62%29.59 "HgN/A
4:20 PM54 °FPassing clouds.22 mph54%29.59 "HgN/A
3:50 PM54 °FPassing clouds.22 mph58%29.59 "HgN/A
3:20 PM54 °FScattered clouds.20 mph63%29.59 "HgN/A
2:50 PM54 °FScattered clouds.21 mph58%29.59 "HgN/A
2:20 PM54 °FScattered clouds.20 mph67%29.59 "HgN/A
1:50 PM54 °FScattered clouds.21 mph58%29.59 "HgN/A
1:20 PM54 °FScattered clouds.20 mph63%29.59 "HgN/A
12:50 PM54 °FScattered clouds.20 mph58%29.59 "HgN/A
12:20 PM54 °FScattered clouds.18 mph58%29.59 "HgN/A
11:50 AM54 °FScattered clouds.14 mph58%29.56 "HgN/A
11:20 AM54 °FScattered clouds.14 mph58%29.56 "HgN/A
10:50 AM54 °FScattered clouds.14 mph54%29.56 "HgN/A
10:20 AM52 °FSunny.14 mph58%29.56 "Hg10 mi
9:50 AM50 °FSunny.15 mph62%29.56 "Hg10 mi
9:20 AM50 °FSunny.13 mph62%29.56 "Hg10 mi
8:50 AM50 °FPassing clouds.12 mph62%29.53 "HgN/A
8:20 AM48 °FPassing clouds.14 mph66%29.53 "HgN/A
7:50 AM46 °FPassing clouds.15 mph71%29.53 "HgN/A
7:20 AM46 °FScattered showers. Passing clouds.14 mph71%29.53 "HgN/A
6:50 AM45 °FSunny.14 mph71%29.53 "Hg10 mi
6:20 AM45 °FSunny.16 mph71%29.53 "Hg10 mi
5:50 AM45 °FSunny.17 mph76%29.53 "Hg10 mi
5:20 AM43 °FQuite cool.17 mph76%29.53 "HgN/A
4:50 AM43 °FQuite cool.15 mph76%29.50 "HgN/A
4:20 AM43 °FQuite cool.15 mph76%29.50 "HgN/A
3:50 AM43 °FPassing clouds.14 mph76%29.50 "HgN/A
3:20 AM43 °FPassing clouds.14 mph76%29.50 "HgN/A
2:50 AM45 °FQuite cool.13 mph76%29.50 "HgN/A
2:20 AM45 °FPassing clouds.13 mph76%29.50 "HgN/A
1:50 AM46 °FPassing clouds.13 mph71%29.50 "HgN/A
1:20 AM46 °FPassing clouds.14 mph71%29.47 "HgN/A
12:50 AM46 °FPassing clouds.12 mph76%29.47 "HgN/A
11:50 PM
Thu, May 28
48 °FPassing clouds.13 mph71%29.47 "HgN/A
11:20 PM48 °FPassing clouds.17 mph66%29.47 "HgN/A
Weather by CustomWeather, © 2015

See weather overviewHow to use our weather pages